Location: Cosy Dell
(34.2789°N, 117.4537°W)
Time: 21:09:24
(UTC+00:00)

Cosmos 1821 Rocket - Pass Details

Date: 14 July 2020
Orbit: 946 x 1004 km, 82.9° (Epoch: 13 August)

Event Time Altitude Azimuth Distance (km) Brightness Sun altitude
Exits shadow 07:40:07 54° 328° (NNW) 1,145 4.5 -34.0°
Drops below altitude 10° 07:44:58 10° 360° (N) 2,671 7.1 -34.1°
Sets 07:47:30 0° 3° (N) 3,619 8.0 -34.1°
